CZ-2D R/B

Satellite information

Favourite Embed

Satellite Type and Status

ROCKET BODYIN ORBIT

Key statistics

Satellite CZ-2D R/B at a glance.

Uptime

5081

Days in orbit

Revolutions

≈ 14.2

Per day

Orbit

SSO

Sun Synchronous Orbit

Inclination

98.9

Latest

Satellite identification and parameters

Extended collection of information and parameters for CZ-2D R/B.

Object identification

Identified? True

Debris? False

Object name: CZ-2D R/B

International designator: 2011-068C

Object number (NORAD): 37932

Object ID (CCSDS): 37932

Country: PEOPLES REPUBLIC OF CHINA (PRC)

Current information (Y/N): Y

RCS size: LARGE

Orbital parameters

Period: 101.201 minutes

Inclination: 98.8551 deg

SMA: 7193.649 km

Apoapsis: 841.194 km

Periapsis: 789.835 km

RAAN: 239.5343 deg

Eccentricy: 0.00356979

Argument of periapsis: 236.3406 deg

Mean anomaly: 191.7805 deg

Mean motion: 14.22914681 rev/day

Mean motion (dot): 0.00000252 rev/day2

B* drag term: 0.00013143268 1/REarth

Two-line elements (TLE)

Creation date: Oct. 18, 2025, 2:17 a.m.

Reference frame: TEME

Reference center: EARTH

Epoch: Oct. 17, 2025, 9:22 p.m. UTC

TLE line 0: 0 CZ-2D R/B

TLE line 1: 1 37932U 11068C 25290.89056699 .00000252 00000-0 13143-3 0 9994

TLE line 2: 2 37932 98.8551 239.5343 0035698 236.3406 191.7805 14.22914681722028

Live tracking on map

Real-time ground track for satellite CZ-2D R/B.

In-orbit conjunctions

A list of the most updated potential collisions computed for object CZ-2D R/B.

Target Orbit TCA Probability of collision Miss distance Type
FENGYUN 1C DEB SSO 2025-10-08 12:05:14 0.0001903184 340.0 (m) DEBRIS
COSMOS 1275 DEB LEO 2025-01-28 00:39:28 0.0005211118 109.0 (m) DEBRIS
FENGYUN 1C DEB SSO 2024-12-02 11:47:17 0.0001979547 349.0 (m) DEBRIS
FENGYUN 1C DEB SSO 2024-11-14 18:25:24 0.0001425296 380.0 (m) DEBRIS
CZ-6A DEB LEO 2024-10-17 06:00:22 0.0001006546 921.0 (m) DEBRIS

Associated space launch

CZ-2D R/B was lifted into orbit during the mission ‘Long March 2D | Shiyan Weixing 4 & Chuang Xin 1C’, on board a Long March 2D space rocket.

The launch took place on Nov. 20, 2011, 12:15 a.m. from Launch Area 4 (SLS-2 / 603).

For more information about the launch, click the button.

Launch to space Long March 2D | Shiyan Weixing 4 & Chuang Xin 1C
Long March 2D | Shiyan Weixing 4 & Chuang Xin 1C

Agency: N/A

Status: Launch Successful

Launch date: Nov. 20, 2011, 12:15 a.m. UTC

Rocket: Long March 2D

Launch pad: Launch Area 4 (SLS-2 / 603)

Location: Jiuquan Satellite Launch Center, People's Republic of China

...

Latest news about this satellite

There are no fresh news available about this satellite. Check back as we update our databases every day.


Newsletter sign-up

Weekly statistics, charts and insights to help you stay on top of the space industry.